Regional Weather Roundup
Issued by NWS Mobile, AL

Home | Current Version | Previous Version | Text Only | Print | Product List | Glossary On
Versions: 1 2 3 4 5 6 7 8 9 10 11 12 13 14 15 16 17 18 19 20 21 22 23 24 25 26 27 28 29 30 31 32 33 34 35 36 37 38 39 40 41 42 43 44 45 46 47 48 49 50
000
ASUS44 KMOB 041713
RWRMOB
REGIONAL WEATHER ROUNDUP
NATIONAL WEATHER SERVICE MOBILE AL
1200 PM CDT SAT JUL 04 2015

NOTE: "FAIR" INDICATES FEW OR NO CLOUDS BELOW 12,000 FEET WITH NO
      SIGNIFICANT WEATHER AND/OR OBSTRUCTIONS TO VISIBILITY.

  * THESE STATIONS ARE PART OF THE UNIVERSITY OF SOUTH ALABAMA
    MESONET AND ARE NOT UNDER NWS OR FAA QUALITY CONTROL.

ALZ061>064-041800-
COASTAL ALABAMA

CITY           SKY/WX    TMP DP  RH WIND       PRES   REMARKS
MOBILE REG APT PTSUNNY   88  71  57 W12       30.07F
BROOKLEY FIELD MOSUNNY   90  72  55 SW13G20   30.08F HX  97
USA CAMPUS*      N/A     91  72  52 S2        30.07F HX  98
DOG RIVER*     NOT AVBL


CITY           SKY/WX    TMP DP  RH WIND       PRES   REMARKS
MOUNT VERNON*    N/A     88  70  55 S3        30.05F
SARALAND*      NOT AVBL
BAY MINETTE*   NOT AVBL
LOXLEY*          N/A     88  75  66 W9        30.07F HX  97
ROBERTSDALE*     N/A     90  73  58 S8        30.06F HX  98
FAIRHOPE*      NOT AVBL
ELBERTA*         N/A     86  73  66 SW9       30.07F
FOLEY*         NOT AVBL
GRAND BAY*     NOT AVBL
DAUPHIN ISLND* NOT AVBL
BON SCOUR NWR* NOT AVBL
GULF SHORES    PTSUNNY   89  76  65 W12G17    30.08F HX  99

$$

ALZ051>060-041800-
INTERIOR SOUTHWEST AND SOUTH CENTRAL ALABAMA

CITY           SKY/WX    TMP DP  RH WIND       PRES   REMARKS
GREENVILLE     MOSUNNY   87  71  58 NW8       30.07F
EVERGREEN      MOSUNNY   88  72  58 SW10      30.08F
CASTLEBERRY*   NOT AVBL
ATMORE*          N/A     88  73  62 SW9       30.09F HX  96
DIXIE*         NOT AVBL
ANDALUSIA/OPP  PTSUNNY   92  69  47 NW12G18   30.08  HX  97
ANDALUSIA*       N/A     86  73  66 W3        30.10F
FLORALA APT    PTSUNNY   76  71  85 CALM      30.11F THUNDER
FLORALA*         N/A     77  75  94 CALM      30.07F

$$

FLZ001>006-041800-
WESTERN FLORIDA PANHANDLE

CITY           SKY/WX    TMP DP  RH WIND       PRES   REMARKS
PENSACOLA      MOSUNNY   80  71  74 NW8       30.09S THUNDER
NAS PENSACOLA  PTSUNNY   88  74  63 SW14G22   30.08F HX  96
MILTON         PTSUNNY   84  70  62 S7        30.09F THUNDER
WHTNG S FIELD  PTSUNNY   84  70  62 S8        30.09F THUNDER


CITY           SKY/WX    TMP DP  RH WIND       PRES   REMARKS
WALNUT HILL*   NOT AVBL
JAY*             N/A     88  72  58 CALM      30.08F
DUKE FIELD     PTSUNNY   86  69  56 W10G22    30.08F
CRESTVIEW      PTSUNNY   90  74  59 SW12      30.10F HX  99
VALPARAISO     PTSUNNY   88  75  65 S12       30.08F HX  98
DESTIN         PTSUNNY   88  78  72 VRB5      30.09F HX 101

$$

MSZ076-079-041800-
INTERIOR SOUTHEAST MISSISSIPPI

CITY           SKY/WX    TMP DP  RH WIND       PRES   REMARKS
LEAKESVILLE*     N/A     86  72  62 SW5       30.06F
AGRICOLA*      NOT AVBL

$$

MARINE OBSERVATIONS

STATION/POSITION TIME  TEMP    WIND        PRES    WAVE
                       AIR SEA DIR/SP/G            HT/PER
                 (UTC) (F)     (DEG/KT/KT) (MB)    (FT/S)
PASCAGOULA       1600   86     260/  9/ 11 1018.9F
PETIT BOIS ISLND 1600   84     250/  7/  8 1019.5S
GRAND BAY        1545   86     240/  8     1020.0S
KATRINA CUT      1600   83     240/ 10     1020.0S
CEDAR POINT      1600   83     240/ 10     1019.0F
E DAUPHIN ISLAND 1600   84     240/  7/  9 1018.8S
MIDDLE BAY LIGHT 1600   83     220/ 14     1019.0S
USCG MOBILE BAY  1600   87 84  220/  7/ 13 1017.8F
STATE DOCKS      1600   89 86              1018.5F
MEAHER PARK      1600   85     220/  8     1018.0S
WEEKS BAY        1500   86                   N/A
FORT MORGAN      1600   84     260/ 10/ 11 1018.8S
12 S ORANGE BCH  1650   83 83  220/ 12/ 12 1018.1F   2/ 4
PENSACOLA BAY    1600   87 85  220/  8/ 12 1019.3F
64 S DAUPHIN ISL 1650   85 86  210/  8/ 10 1019.2F   2/ 4
67 S FORT MORGAN 1630   83     210/  8     1019.3S

$$

SELECTED LOCATIONS ACROSS THE REGION

CITY           SKY/WX    TMP DP  RH WIND       PRES   REMARKS
NEW ORLEANS    PTSUNNY   92  71  50 SW12      30.06F HX  98
GULFPORT       MOSUNNY   89  72  56 S10       30.06F HX  96
PASCAGOULA AP  MOSUNNY   89  75  63 S10       30.07F HX  99
PASCAGOULA*    NOT AVBL
HATTIESBURG    MOSUNNY   88  73  61 SW10      30.05F HX  95
LAUREL         MOSUNNY   88  73  62 S9        30.06F HX  96
MERIDIAN       PTSUNNY   84  73  69 S10       30.03F
JACKSON        PTSUNNY   85  73  67 SW9       30.02S
MONTGOMERY     PTSUNNY   87  72  60 NW8       30.07F
TROY           TSTM      77  69  76 MISG      30.10R
KINSTON*         N/A     77  73  88 SW6         N/A
GENEVA*          N/A     81  68  65 SW6       30.11F
ASHFORD*         N/A     86  73  66 W3        30.10F
DOTHAN         MOSUNNY   84  74  71 W8          N/A
PANAMA CITY    MOSUNNY   90  70  51 SW10      30.08F HX  95

$$




USA.gov is the U.S. government's official web portal to all federal, state and local government web resources and services.